This demonstration page uses our WeatherBlox Daily Observations layout. Learn more.

Left ArrowRight Arrow

39.95238, -75.16362

Hourly Observations for December 4, 2022

Temp ( °F °C ) Dew Point ( °F °C ) Humidity (%) Winds ( mph kmh ) Pressure ( in mb ) Visibility ( mi km ) Precip ( " mm )
12:54 am 00:54 Clear 43 6.1 26 -3.3 51 51 WNW 9 15 30.20 1023 10 16 0.00 0.00
1:54 am 01:54 Clear 42 5.6 25 -3.9 50 50 WNW 9 15 30.22 1023 10 16 0.00 0.00
2:54 am 02:54 Clear 41 5 24 -4.4 51 51 W 7 11 30.23 1024 10 16 0.00 0.00
3:54 am 03:54 Mostly Clear 40 4.4 24 -4.4 53 53 WNW 7 11 30.23 1024 10 16 0.00 0.00
4:54 am 04:54 Mostly Clear 39 3.9 24 -4.4 55 55 WNW 9 15 30.25 1024 10 16 0.00 0.00
5:54 am 05:54 Clear 39 3.9 24 -4.4 55 55 WNW 12 19 30.25 1024 10 16 0.00 0.00
6:54 am 06:54 Clear 37 2.8 24 -4.4 59 59 NW 10 17 30.25 1024 10 16 0.00 0.00
7:54 am 07:54 Mostly Sunny 37 2.8 24 -4.4 59 59 WNW 8 13 30.26 1025 10 16 0.00 0.00
8:54 am 08:54 Mostly Sunny 39 3.9 23 -5 52 52 NW 12 19 30.27 1025 10 16 0.00 0.00
9:54 am 09:54 Partly Cloudy 41 5 24 -4.4 51 51 NNW 10 17 30.26 1025 10 16 0.00 0.00
10:54 am 10:54 Partly Cloudy 43 6.1 24 -4.4 47 47 WNW 8 13 30.24 1024 10 16 0.00 0.00
11:54 am 11:54 Partly Cloudy 44 6.7 25 -3.9 47 47 N 8 13 30.20 1023 10 16 0.00 0.00
12:54 pm 12:54 Mostly Cloudy 44 6.7 23 -5 43 43 WNW 8 13 30.20 1023 10 16 0.00 0.00
1:54 pm 13:54 Mostly Cloudy 45 7.2 24 -4.4 43 43 WNW 5 7 30.19 1022 10 16 0.00 0.00
2:54 pm 14:54 Mostly Cloudy 45 7.2 22 -5.6 40 40 W 8 13 30.19 1023 10 16 0.00 0.00
3:54 pm 15:54 Partly Cloudy 44 6.7 24 -4.4 45 45 WSW 8 13 30.20 1023 10 16 0.00 0.00
4:54 pm 16:54 Mostly Clear 42 5.6 23 -5 46 46 W 10 17 30.21 1023 10 16 0.00 0.00
5:54 pm 17:54 Mostly Clear 39 3.9 23 -5 52 52 W 10 17 30.22 1023 10 16 0.00 0.00
6:54 pm 18:54 Clear 39 3.9 21 -6.1 48 48 W 9 15 30.21 1023 10 16 0.00 0.00
7:54 pm 19:54 Clear 40 4.4 20 -6.7 44 44 WNW 7 11 30.23 1024 10 16 0.00 0.00
8:54 pm 20:54 Clear 36 2.2 21 -6.1 54 54 W 6 9 30.21 1023 10 16 0.00 0.00
9:54 pm 21:54 Clear 36 2.2 22 -5.6 56 56 NNW 3 6 30.23 1024 10 16 0.00 0.00
10:54 pm 22:54 Clear 33 0.6 22 -5.6 63 63 Calm 30.22 1023 10 16 0.00 0.00
11:54 pm 23:54 Clear 32 0 26 -3.3 78 78 Calm 30.22 1023 10 16 0.00 0.00

Powered by AerisWeather